| time (UTC) | temp C | wind direction | speed KPH | gust KPH | rain 1hr cm | rain 24hr cm | rain mn cm | humidity % | barometer mb |
| 20260508034548 | 17 | 0 | 0.0 | 0.0 | 0.00 | 0.00 | 0.00 | 58 | 1016.2 |
| 20260508033043 | 18 | 0 | 0.0 | 0.0 | 0.00 | 0.00 | 0.00 | 54 | 1015.9 |
| 20260508031544 | 18 | 0 | 0.0 | 0.0 | 0.00 | 0.00 | 0.00 | 49 | 1015.9 |
| 20260508030046 | 19 | 0 | 0.0 | 1.6 | 0.00 | 0.00 | 0.00 | 45 | 1015.7 |
| 20260508024553 | 20 | 0 | 0.0 | 0.0 | 0.00 | 0.00 | 0.00 | 41 | 1015.8 |
| 20260508023046 | 20 | 0 | 0.0 | 0.0 | 0.00 | 0.00 | 0.00 | 38 | 1015.9 |
| 20260508021548 | 21 | 0 | 0.0 | 3.2 | 0.00 | 0.00 | 0.00 | 40 | 1015.9 |
| 20260508020046 | 21 | 0 | 0.0 | 4.8 | 0.00 | 0.00 | 0.00 | 38 | 1016.1 |
| 20260508014543 | 21 | 0 | 0.0 | 0.0 | 0.00 | 0.00 | 0.00 | 40 | 1016.1 |
| 20260508013042 | 21 | 0 | 0.0 | 1.6 | 0.00 | 0.00 | 0.00 | 40 | 1016.0 |
| 20260508011600 | 21 | 0 | 3.2 | 9.7 | 0.00 | 0.00 | 0.00 | 36 | 1016.2 |
| 20260508010049 | 21 | 0 | 0.0 | 3.2 | 0.00 | 0.00 | 0.00 | 38 | 1016.4 |
| 20260508004556 | 22 | 277 | 0.0 | 9.7 | 0.00 | 0.00 | 0.00 | 36 | 1016.6 |
| 20260508003049 | 21 | 293 | 0.0 | 4.8 | 0.00 | 0.00 | 0.00 | 37 | 1016.7 |
| 20260508001552 | 22 | 0 | 3.2 | 11.3 | 0.00 | 0.00 | 0.00 | 35 | 1016.8 |
| 20260508000041 | 22 | 0 | 3.2 | 11.3 | 0.00 | 0.00 | 0.00 | 38 | 1016.8 |
| 20260507234553 | 22 | 0 | 3.2 | 8.0 | 0.00 | 0.00 | 0.00 | 36 | 1017.0 |
| 20260507233043 | 22 | 308 | 1.6 | 6.4 | 0.00 | 0.00 | 0.00 | 43 | 1017.0 |
| 20260507231549 | 21 | 305 | 0.0 | 8.0 | 0.00 | 0.00 | 0.00 | 39 | 1017.1 |
| 20260507230050 | 22 | 310 | 1.6 | 14.5 | 0.00 | 0.00 | 0.00 | 40 | 1017.3 |
| 20260507224549 | 21 | 284 | 4.8 | 16.1 | 0.00 | 0.00 | 0.00 | 39 | 1017.4 |
| 20260507223054 | 21 | 285 | 1.6 | 16.1 | 0.00 | 0.00 | 0.00 | 37 | 1017.6 |
| 20260507221548 | 21 | 294 | 1.6 | 11.3 | 0.00 | 0.00 | 0.00 | 41 | 1017.6 |
| 20260507220051 | 21 | 297 | 0.0 | 12.9 | 0.00 | 0.00 | 0.00 | 49 | 1017.9 |
| 20260507214548 | 21 | 294 | 4.8 | 11.3 | 0.00 | 0.00 | 0.00 | 46 | 1018.2 |
| 20260507213054 | 20 | 288 | 1.6 | 6.4 | 0.00 | 0.00 | 0.00 | 47 | 1018.5 |
| 20260507211547 | 20 | 288 | 1.6 | 11.3 | 0.00 | 0.00 | 0.00 | 48 | 1018.6 |
| 20260507210052 | 20 | 308 | 3.2 | 12.9 | 0.00 | 0.00 | 0.00 | 49 | 1018.9 |
| 20260507204552 | 20 | 298 | 1.6 | 12.9 | 0.00 | 0.00 | 0.00 | 50 | 1019.1 |
| 20260507203050 | 19 | 0 | 0.0 | 11.3 | 0.00 | 0.00 | 0.00 | 54 | 1019.1 |
| 20260507201544 | 19 | 284 | 0.0 | 6.4 | 0.00 | 0.00 | 0.00 | 58 | 1019.3 |
| 20260507200047 | 18 | 284 | 0.0 | 6.4 | 0.00 | 0.00 | 0.00 | 60 | 1019.4 |
| 20260507194545 | 18 | 286 | 6.4 | 14.5 | 0.00 | 0.00 | 0.00 | 54 | 1019.6 |
| 20260507193051 | 18 | 176 | 0.0 | 6.4 | 0.00 | 0.00 | 0.00 | 55 | 1019.7 |
| 20260507191551 | 18 | 221 | 0.0 | 11.3 | 0.00 | 0.00 | 0.00 | 57 | 1019.9 |
| 20260507190042 | 17 | 0 | 1.6 | 4.8 | 0.00 | 0.00 | 0.00 | 60 | 1020.1 |
| 20260507184547 | 17 | 0 | 8.0 | 14.5 | 0.00 | 0.00 | 0.00 | 58 | 1020.3 |
| 20260507183045 | 17 | 273 | 0.0 | 12.9 | 0.00 | 0.00 | 0.00 | 58 | 1020.4 |
| 20260507181543 | 16 | 294 | 4.8 | 12.9 | 0.00 | 0.00 | 0.00 | 60 | 1020.7 |
| 20260507180047 | 16 | 227 | 6.4 | 11.3 | 0.00 | 0.00 | 0.00 | 59 | 1020.7 |
| 20260507174547 | 16 | 295 | 0.0 | 8.0 | 0.00 | 0.00 | 0.00 | 58 | 1020.9 |
| 20260507173045 | 16 | 304 | 0.0 | 6.4 | 0.00 | 0.00 | 0.00 | 64 | 1021.0 |
| 20260507171558 | 15 | 0 | 0.0 | 11.3 | 0.00 | 0.00 | 0.00 | 64 | 1021.1 |
| 20260507170052 | 15 | 283 | 0.0 | 6.4 | 0.00 | 0.00 | 0.00 | 66 | 1021.0 |
| 20260507164549 | 13 | 0 | 1.6 | 9.7 | 0.00 | 0.00 | 0.00 | 70 | 1021.1 |
| 20260507163048 | 13 | 281 | 1.6 | 9.7 | 0.00 | 0.00 | 0.00 | 72 | 1021.0 |
| 20260507161543 | 12 | 281 | 3.2 | 9.7 | 0.00 | 0.00 | 0.00 | 75 | 1021.1 |
| 20260507160048 | 11 | 281 | 0.0 | 8.0 | 0.00 | 0.00 | 0.00 | 75 | 1021.1 |
| 20260507154550 | 11 | 277 | 3.2 | 11.3 | 0.00 | 0.00 | 0.00 | 75 | 1021.2 |
| 20260507153042 | 11 | 0 | 1.6 | 6.4 | 0.00 | 0.00 | 0.00 | 76 | 1021.2 |
| 20260507151548 | 11 | 285 | 1.6 | 9.7 | 0.00 | 0.00 | 0.00 | 76 | 1021.3 |
| 20260507150047 | 11 | 292 | 0.0 | 4.8 | 0.00 | 0.00 | 0.00 | 77 | 1021.3 |
| 20260507144613 | 10 | 0 | 0.0 | 12.9 | 0.00 | 0.00 | 0.00 | 77 | 1021.2 |
| 20260507143054 | 10 | 281 | 3.2 | 11.3 | 0.00 | 0.00 | 0.00 | 77 | 1021.2 |
| 20260507141548 | 10 | 293 | 1.6 | 6.4 | 0.00 | 0.00 | 0.00 | 78 | 1021.1 |
| 20260507140050 | 10 | 0 | 0.0 | 11.3 | 0.00 | 0.00 | 0.00 | 78 | 1021.0 |
| 20260507134544 | 10 | 293 | 4.8 | 11.3 | 0.00 | 0.00 | 0.00 | 78 | 1020.9 |
| 20260507133044 | 10 | 277 | 1.6 | 6.4 | 0.00 | 0.00 | 0.00 | 77 | 1020.7 |
| 20260507131544 | 10 | 0 | 0.0 | 9.7 | 0.00 | 0.00 | 0.00 | 77 | 1020.7 |
| 20260507130043 | 10 | 275 | 1.6 | 6.4 | 0.00 | 0.00 | 0.00 | 77 | 1020.8 |
| 20260507124549 | 11 | 298 | 1.6 | 14.5 | 0.00 | 0.00 | 0.00 | 76 | 1020.7 |
| 20260507123047 | 11 | 302 | 3.2 | 14.5 | 0.00 | 0.00 | 0.00 | 76 | 1020.7 |
| 20260507121542 | 11 | 336 | 6.4 | 14.5 | 0.00 | 0.00 | 0.00 | 75 | 1020.8 |
| 20260507120042 | 11 | 273 | 3.2 | 11.3 | 0.00 | 0.00 | 0.00 | 76 | 1020.8 |
| 20260507114539 | 11 | 294 | 6.4 | 12.9 | 0.00 | 0.00 | 0.00 | 75 | 1020.8 |
| 20260507113045 | 11 | 301 | 6.4 | 14.5 | 0.00 | 0.00 | 0.00 | 75 | 1020.8 |
| 20260507111548 | 11 | 323 | 8.0 | 12.9 | 0.00 | 0.00 | 0.00 | 75 | 1020.8 |
| 20260507110054 | 11 | 317 | 4.8 | 16.1 | 0.00 | 0.00 | 0.00 | 76 | 1020.8 |
| 20260507104543 | 11 | 344 | 1.6 | 9.7 | 0.00 | 0.00 | 0.00 | 76 | 1020.9 |
| 20260507103042 | 11 | 327 | 4.8 | 14.5 | 0.00 | 0.00 | 0.00 | 76 | 1020.9 |
| 20260507101550 | 12 | 300 | 4.8 | 16.1 | 0.00 | 0.00 | 0.00 | 77 | 1021.0 |
| 20260507100045 | 12 | 284 | 4.8 | 14.5 | 0.00 | 0.00 | 0.00 | 77 | 1021.1 |
| 20260507094547 | 12 | 297 | 8.0 | 17.7 | 0.00 | 0.00 | 0.00 | 77 | 1021.2 |
| 20260507093046 | 12 | 290 | 8.0 | 14.5 | 0.00 | 0.00 | 0.00 | 78 | 1021.3 |
| 20260507091542 | 12 | 288 | 4.8 | 9.7 | 0.00 | 0.00 | 0.00 | 77 | 1021.4 |
| 20260507090047 | 12 | 323 | 4.8 | 12.9 | 0.00 | 0.00 | 0.00 | 77 | 1021.3 |
| 20260507084547 | 12 | 284 | 1.6 | 11.3 | 0.00 | 0.00 | 0.00 | 78 | 1021.4 |
| 20260507083043 | 12 | 316 | 3.2 | 8.0 | 0.00 | 0.00 | 0.00 | 78 | 1021.4 |
| 20260507081542 | 12 | 287 | 3.2 | 12.9 | 0.00 | 0.00 | 0.00 | 78 | 1021.5 |
| 20260507080048 | 12 | 350 | 3.2 | 12.9 | 0.00 | 0.00 | 0.00 | 78 | 1021.5 |
| 20260507074545 | 12 | 299 | 8.0 | 16.1 | 0.00 | 0.00 | 0.00 | 78 | 1021.5 |
| 20260507073044 | 12 | 298 | 3.2 | 12.9 | 0.00 | 0.00 | 0.00 | 78 | 1021.5 |
| 20260507071543 | 12 | 294 | 3.2 | 8.0 | 0.00 | 0.00 | 0.00 | 78 | 1021.4 |
| 20260507070044 | 12 | 292 | 3.2 | 11.3 | 0.00 | 0.00 | 0.00 | 77 | 1021.4 |
| 20260507064541 | 12 | 292 | 3.2 | 12.9 | 0.00 | 0.00 | 0.00 | 77 | 1021.5 |
| 20260507063048 | 12 | 313 | 6.4 | 16.1 | 0.00 | 0.00 | 0.00 | 77 | 1021.5 |
| 20260507061544 | 13 | 327 | 6.4 | 17.7 | 0.00 | 0.00 | 0.00 | 77 | 1021.5 |
| 20260507060052 | 13 | 298 | 8.0 | 17.7 | 0.00 | 0.00 | 0.00 | 77 | 1021.5 |
| 20260507054548 | 13 | 288 | 8.0 | 17.7 | 0.00 | 0.00 | 0.00 | 76 | 1021.5 |
| 20260507053042 | 13 | 306 | 8.0 | 17.7 | 0.00 | 0.00 | 0.00 | 75 | 1021.4 |
| 20260507051549 | 13 | 316 | 9.7 | 16.1 | 0.00 | 0.00 | 0.00 | 75 | 1021.4 |
| 20260507050046 | 13 | 274 | 6.4 | 14.5 | 0.00 | 0.00 | 0.00 | 75 | 1021.5 |
| 20260507044558 | 14 | 334 | 6.4 | 14.5 | 0.00 | 0.00 | 0.00 | 75 | 1021.5 |
| 20260507043044 | 14 | 308 | 3.2 | 16.1 | 0.00 | 0.00 | 0.00 | 75 | 1021.3 |
| 20260507041543 | 15 | 311 | 9.7 | 19.3 | 0.00 | 0.00 | 0.00 | 74 | 1021.2 |
| 20260507040039 | 15 | 313 | 9.7 | 22.5 | 0.00 | 0.00 | 0.00 | 74 | 1020.9 |